GEFSNE_500_meanwind_054.txt.gz
Wind_Speed
44 45 45 46 46 45 44 42 40 38 38 38 39 39 38 37 35 33 32 31 29 28 27 27 26 24 23 22 23 23 24 24 25 26 27 28 28 29
43 45 46 47 46 46 45 44 43 41 39 40 41 40 40 39 38 36 33 32 30 29 29 28 27 26 25 24 25 25 25 26 27 27 28 29 29 28
40 43 45 46 47 47 47 45 44 44 42 42 42 41 40 40 39 38 36 34 32 31 30 29 28 27 27 26 26 25 26 27 27 28 29 29 28 27
36 39 42 43 45 46 45 45 45 45 43 43 43 42 41 41 41 41 38 37 35 33 32 31 30 29 28 27 27 26 26 26 27 27 27 26 26 26
30 34 38 40 42 43 44 43 43 43 44 43 42 42 41 40 41 40 38 36 35 34 33 32 30 29 28 28 27 27 27 27 27 26 26 25 25 25
25 29 33 37 39 41 42 41 42 41 42 42 42 42 41 40 40 38 38 36 35 34 33 33 31 30 29 28 28 28 28 27 26 25 25 25 24 23
21 24 27 30 34 38 39 40 40 40 40 40 40 40 39 40 39 38 37 36 35 34 34 33 32 30 29 29 29 28 27 26 26 25 24 23 21 19
18 20 22 24 28 32 35 37 37 36 37 38 38 38 37 36 35 35 35 36 35 34 34 33 32 30 29 28 27 26 26 25 25 23 21 20 18 17
17 18 20 22 23 26 28 31 32 32 32 33 35 35 35 34 34 33 33 34 34 34 33 32 31 29 28 27 26 25 25 24 23 21 19 17 16 15
16 17 18 20 21 22 24 26 28 28 28 29 30 31 32 32 32 33 33 33 33 32 31 29 28 27 26 25 25 24 23 22 20 18 17 16 15 14
13 15 17 17 18 19 21 23 25 26 26 26 28 29 30 30 30 31 31 32 31 30 29 28 27 26 25 24 24 23 21 19 18 17 16 15 14 13
10 12 14 16 17 17 18 20 21 23 24 25 25 25 26 27 27 27 27 27 27 27 26 26 25 24 24 24 22 21 20 18 18 16 15 14 13 12
7 10 12 14 15 16 17 18 19 20 22 22 24 25 25 25 25 26 26 26 25 25 25 25 24 23 23 22 20 19 18 17 16 16 14 13 12 11
4 7 10 12 13 14 14 15 16 18 19 19 20 22 23 24 24 24 24 24 23 23 22 22 22 21 21 20 19 18 17 16 15 15 14 13 12 12
4 6 8 10 12 12 13 13 13 14 16 15 17 18 19 20 21 21 22 21 21 21 20 20 20 19 19 18 17 17 16 15 14 14 13 13 12 12
7 6 8 9 10 11 11 10 11 12 14 14 15 16 17 18 19 19 20 21 21 21 20 19 18 17 17 16 16 15 14 14 13 13 12 12 12 12
9 8 8 8 9 10 10 9 9 11 12 14 15 15 15 16 17 17 18 18 18 18 17 17 16 15 15 15 14 13 13 12 12 12 12 12 12 12
10 9 8 8 9 9 9 9 9 10 11 12 13 15 15 14 15 16 16 16 16 16 15 14 14 14 14 13 13 13 12 12 12 12 12 12 12 12
9 8 7 7 7 8 8 9 9 9 10 11 12 12 13 13 14 14 14 15 15 15 14 14 13 13 13 12 12 12 12 12 12 12 12 12 12 12
8 7 7 7 7 7 7 8 8 9 10 11 11 11 12 12 13 13 13 13 13 13 13 13 13 13 12 12 12 12 12 12 12 12 12 12 12 13
6 6 6 6 6 6 7 7 8 9 10 10 10 10 11 11 11 11 11 11 11 12 12 12 12 12 12 12 12 12 12 12 12 12 12 12 13 14
4 4 4 4 5 6 6 7 8 9 9 9 9 9 10 10 10 10 11 11 11 11 11 11 11 11 11 11 11 11 11 12 12 12 13 13 14 15
2 0 1 2 4 5 6 7 7 8 9 8 9 9 9 9 10 10 11 11 11 11 10 10 10 11 11 11 11 11 12 12 12 13 14 14 15 16

GEFSNE_500_meanwind_060.txt.gz
Wind_Speed
43 45 46 46 46 46 47 46 45 43 44 43 43 41 39 39 39 39 37 35 34 33 32 31 30 29 28 27 25 24 23 23 23 22 22 23 23 23
38 42 44 46 46 47 48 48 47 46 45 44 44 43 42 39 39 40 39 37 35 34 32 31 31 30 29 28 27 26 26 25 24 24 24 24 24 24
34 37 41 44 45 47 48 48 49 49 47 47 46 44 43 40 39 39 40 39 37 36 34 33 32 32 31 30 29 29 27 26 26 26 25 25 25 25
30 34 37 41 43 45 47 48 49 49 48 49 49 47 45 42 40 40 40 39 38 37 36 35 34 33 32 32 32 30 29 28 27 26 25 25 25 25
28 31 34 37 40 42 45 46 48 48 48 49 50 49 48 45 42 42 42 42 41 40 38 37 37 36 35 34 32 31 30 29 27 26 25 25 24 25
24 28 31 33 36 39 42 44 46 47 47 48 49 49 48 47 45 43 43 43 43 42 41 40 40 39 37 36 34 32 30 29 27 26 25 25 25 25
22 24 27 30 32 34 38 41 44 45 46 47 48 48 47 46 46 45 44 45 44 43 43 43 42 41 39 38 36 33 31 29 27 26 25 25 25 24
20 22 24 27 29 31 33 36 40 43 44 45 47 47 45 46 47 46 44 44 43 42 41 41 41 41 40 39 36 34 32 30 27 27 26 26 24 23
18 20 21 23 25 27 29 32 34 37 40 41 43 44 45 45 46 46 44 43 43 41 41 41 40 40 40 38 36 35 33 30 28 26 26 25 24 22
14 16 18 19 21 23 25 27 29 31 35 38 39 39 41 43 43 43 43 42 41 41 41 42 41 40 38 36 35 33 31 29 28 26 25 24 23 22
10 12 15 17 18 21 23 25 26 27 30 32 34 36 37 37 38 39 39 39 40 41 41 40 39 38 35 33 32 31 29 28 27 26 25 24 23 21
6 8 11 13 15 18 19 22 23 25 26 28 30 32 35 35 36 36 37 38 37 37 38 36 35 35 34 32 31 31 29 28 27 26 25 23 22 20
6 4 6 9 11 14 16 18 20 23 23 24 27 29 32 33 33 34 36 36 35 34 35 35 34 33 33 32 30 29 27 26 26 25 24 23 21 20
7 4 3 6 8 10 12 13 15 18 20 21 23 25 27 30 31 31 32 33 34 33 32 31 31 31 31 30 28 26 25 25 24 24 23 21 20 20
9 6 2 3 6 8 9 10 11 13 16 19 20 22 24 26 29 29 29 30 30 31 30 29 29 29 28 27 26 25 25 24 24 23 22 21 20 20
10 7 3 1 3 5 7 9 10 12 13 16 18 20 22 23 25 26 27 28 28 28 28 28 27 27 26 26 25 25 24 24 23 22 21 21 21 20
11 8 5 2 1 3 5 7 9 9 11 13 15 18 20 21 22 24 25 26 27 26 26 26 26 25 25 25 24 24 23 23 22 21 21 20 19 19
11 8 5 3 2 3 4 5 7 9 11 12 14 15 18 20 22 24 24 25 25 25 25 25 25 24 23 23 22 21 21 21 21 21 20 20 19 19
11 8 5 3 2 3 3 5 6 8 10 12 13 14 16 18 20 21 23 23 24 24 24 24 24 23 22 22 22 21 20 20 20 20 19 19 19 18
10 8 6 4 3 4 4 5 6 7 10 11 13 14 15 16 18 19 21 22 22 22 23 22 22 22 21 21 21 21 20 20 20 19 19 19 18 18
10 8 7 5 4 5 6 6 6 7 9 10 12 13 14 16 17 17 17 19 20 20 21 21 21 21 21 21 21 21 20 20 19 19 19 19 18 18
12 10 8 7 6 6 7 7 8 9 9 10 11 13 14 15 16 17 17 18 19 19 20 20 20 20 20 20 19 20 20 20 19 19 19 18 18 18
15 13 12 10 9 8 8 9 10 11 11 12 13 14 15 15 16 17 18 19 19 20 20 20 20 20 20 20 19 19 20 20 20 19 19 19 19 19

GEFSNE_500_meanwind_066.txt.gz
Wind_Speed
28 31 33 36 38 40 41 42 43 43 43 43 43 42 41 40 40 39 39 39 39 39 38 37 35 34 33 31 30 29 28 27 26 25 24 23 22 22
26 29 31 34 36 38 40 41 43 44 43 43 43 43 43 43 41 40 40 40 40 40 39 38 37 36 35 33 32 31 30 29 28 27 26 25 24 24
25 27 29 32 34 36 39 40 42 43 43 43 44 44 44 43 42 42 41 41 41 40 39 39 39 38 37 35 34 33 32 31 30 29 28 28 27 26
25 26 27 30 32 35 37 39 41 42 42 42 44 45 45 44 43 43 42 42 41 40 40 40 40 39 38 37 36 34 33 32 31 30 30 30 29 28
23 25 26 28 30 32 35 37 39 41 42 42 43 45 45 45 44 43 43 42 43 42 41 40 40 39 39 39 37 36 35 33 33 32 32 31 31 30
21 22 24 26 28 30 32 35 37 39 41 41 42 43 44 44 45 44 44 43 42 42 41 40 39 39 39 39 38 37 36 35 34 33 33 32 32 31
18 20 22 23 25 27 29 32 34 37 39 40 41 43 44 44 44 44 45 44 44 42 41 41 41 40 40 39 39 38 37 37 36 35 35 34 33 33
16 17 19 20 22 24 26 29 32 34 35 37 39 40 41 42 43 44 44 44 44 43 43 41 42 42 40 39 39 38 38 39 39 38 37 36 35 33
15 14 15 17 19 20 22 25 27 30 32 34 36 37 38 39 41 43 43 43 42 42 43 43 42 42 41 41 41 41 40 40 39 38 38 37 36 33
16 14 12 13 14 16 18 20 23 25 27 30 33 35 36 37 38 40 42 43 42 42 42 42 42 42 42 42 40 40 41 41 40 39 38 36 34 31
17 14 12 11 11 12 14 16 19 22 24 25 28 32 35 36 37 38 40 41 41 40 40 41 42 42 41 41 40 39 40 40 38 37 36 34 33 31
18 15 13 11 9 9 10 13 15 18 20 22 24 28 32 34 36 37 38 39 40 40 40 40 40 40 40 39 38 38 38 37 37 36 35 33 31 30
18 16 14 12 10 8 8 9 11 14 17 19 21 24 27 30 32 34 36 37 37 37 38 39 39 39 39 38 37 37 36 36 36 36 34 32 30 29
19 17 15 13 11 9 7 7 8 10 13 16 19 21 24 26 28 30 33 35 36 36 36 36 36 36 37 37 37 36 36 36 35 34 32 30 29 28
19 18 16 14 13 11 9 8 7 9 11 13 16 19 21 23 25 27 30 32 33 34 34 34 34 34 34 34 35 36 36 35 34 33 31 30 28 28
19 18 17 15 13 12 10 9 8 8 9 10 12 15 18 20 22 24 27 30 31 32 32 32 33 32 32 32 33 34 34 34 33 32 30 29 29 28
19 19 17 16 14 13 11 10 9 9 10 10 12 14 16 18 19 21 24 27 30 31 32 32 33 33 33 32 32 32 32 31 30 30 29 28 27 26
20 19 18 17 15 14 12 12 11 11 11 11 12 13 14 16 18 19 21 24 27 29 31 30 31 32 32 31 31 31 30 30 29 28 27 26 26 25
20 19 19 18 17 15 14 13 13 12 12 12 12 12 13 14 15 17 19 21 23 25 27 28 28 28 29 30 29 30 29 29 28 27 26 25 25 26
22 21 20 19 18 17 16 15 14 14 13 13 13 13 13 14 13 14 16 18 21 22 24 24 25 26 27 27 27 28 28 27 26 25 26 25 25 25
24 23 22 21 20 19 18 17 16 16 15 14 14 14 14 14 14 14 15 17 19 20 20 22 24 24 25 25 25 25 25 25 25 25 25 25 25 24
28 27 25 24 23 22 21 20 19 18 17 16 15 15 14 14 15 15 15 16 19 20 21 22 23 24 24 24 24 24 25 25 25 24 24 24 24 24
33 32 30 29 27 26 25 23 22 21 20 19 18 17 16 16 16 16 17 18 19 20 21 22 23 24 24 24 24 24 25 25 24 24 24 24 24 25

GEFSNE_500_meanwind_072.txt.gz
Wind_Speed
21 23 26 29 31 34 37 39 40 41 42 42 42 43 44 44 44 43 42 40 39 40 40 39 38 37 36 35 33 32 31 30 28 28 27 26 24 24
19 22 24 27 30 33 35 37 40 41 42 43 44 44 45 45 46 45 44 42 41 41 41 40 40 39 38 37 36 35 34 32 31 30 29 28 27 26
18 20 23 25 28 31 33 36 38 40 41 42 44 45 45 46 46 46 47 45 44 43 42 41 41 40 40 39 39 38 37 35 34 33 32 30 29 28
16 18 20 23 26 29 31 33 36 39 41 42 44 46 46 46 47 47 47 47 46 45 45 43 42 41 41 40 40 40 39 38 37 35 34 32 31 30
15 16 18 20 23 25 28 31 33 36 39 41 43 45 46 47 47 48 48 48 48 47 47 46 44 43 42 41 40 40 40 39 38 37 36 35 33 32
14 14 15 16 18 21 24 27 30 33 36 38 41 43 45 46 47 47 47 47 48 48 47 46 46 45 44 43 42 41 41 40 40 38 38 37 36 34
15 14 13 13 14 16 19 22 25 29 32 35 38 41 43 44 45 46 47 48 48 48 48 47 47 46 45 44 43 42 41 40 40 39 39 38 37 35
16 14 12 10 11 13 15 17 20 24 27 30 34 37 41 43 44 45 46 47 47 47 48 48 48 48 46 44 43 42 41 40 40 40 39 38 37 36
16 14 12 11 10 10 12 14 16 18 22 25 29 32 36 39 41 42 44 45 46 46 47 48 49 48 47 45 44 43 42 42 41 40 40 39 38 38
17 15 13 12 11 10 11 11 13 15 18 21 25 28 31 34 37 39 41 43 45 45 45 45 46 47 46 46 46 44 43 42 41 41 40 40 39 39
17 16 14 13 12 11 11 11 12 13 15 17 21 24 28 30 33 36 38 40 42 43 44 44 45 46 46 46 45 45 45 44 43 42 42 40 40 40
18 17 16 14 14 13 12 12 11 11 12 15 17 20 24 27 30 33 35 38 40 41 43 44 44 45 46 45 45 45 45 45 44 44 42 42 42 42
18 17 17 16 15 14 13 12 11 11 11 12 14 17 20 23 27 30 32 34 37 39 40 42 43 44 45 45 44 44 45 44 44 44 43 43 42 43
18 18 17 17 16 15 15 14 13 12 11 11 13 14 17 19 22 26 29 32 34 36 38 40 41 42 43 44 44 43 42 42 43 43 41 41 41 42
18 18 18 18 17 16 15 14 14 13 12 11 12 13 14 16 19 22 25 28 31 33 36 38 39 41 43 43 43 44 43 42 41 41 41 41 41 40
19 19 18 18 18 17 17 16 15 14 13 13 13 13 14 15 16 18 21 23 26 29 31 33 35 38 40 42 42 42 43 42 41 41 41 41 40 39
20 20 19 19 19 18 18 17 16 16 15 15 14 14 15 16 17 18 20 21 23 26 29 31 34 35 37 39 40 41 42 42 42 41 41 40 40 39
21 21 21 20 20 20 20 19 19 18 17 17 17 17 17 17 18 18 19 21 23 24 26 28 31 33 34 35 37 38 39 40 40 39 40 40 39 39
22 22 22 22 22 21 21 21 21 21 20 19 19 19 19 19 19 19 20 21 22 23 25 26 28 30 32 34 35 37 37 38 38 38 38 38 38 38
23 24 24 24 24 24 23 23 23 23 23 23 22 21 21 20 21 21 21 21 21 23 24 25 27 28 29 31 33 35 36 36 37 37 37 39 39 38
26 26 26 26 26 26 26 26 26 26 26 25 25 25 24 23 23 22 22 22 22 23 24 25 26 27 28 28 30 32 35 36 36 37 37 38 38 38
29 29 29 29 29 29 29 29 29 29 29 29 28 28 27 27 26 25 24 24 23 23 23 25 26 26 28 29 29 31 33 34 35 35 36 38 38 38
32 32 32 32 32 32 33 33 33 33 32 32 32 32 31 30 30 29 28 27 26 25 25 26 26 27 28 29 30 31 32 33 34 34 34 35 36 36

GEFSNE_500_meanwind_078.txt.gz
Wind_Speed
13 15 17 20 22 26 29 32 33 35 37 39 42 43 43 44 45 45 45 44 42 42 41 40 39 37 36 35 34 33 31 30 29 29 28 26 26 25
12 13 16 19 21 23 26 29 32 34 36 38 40 43 44 44 45 45 47 47 46 45 44 43 43 42 40 39 37 36 35 34 32 31 31 30 29 28
11 12 14 16 18 21 25 27 29 32 35 37 38 41 42 44 45 46 47 48 48 48 47 47 47 46 44 42 41 40 38 37 36 35 35 34 33 31
12 11 12 13 16 18 21 24 26 29 32 35 37 39 41 43 45 46 46 47 49 50 49 48 48 47 46 45 44 43 42 40 39 38 37 36 35 34
12 11 11 12 13 15 17 20 23 25 28 32 35 38 40 41 44 46 46 46 47 49 50 51 50 49 48 47 47 46 45 42 41 40 39 38 37 36
13 12 11 10 10 12 13 16 18 21 24 28 31 34 37 39 41 44 45 47 47 48 50 50 51 51 51 48 47 47 46 45 43 42 41 40 40 39
13 12 12 11 10 10 11 12 14 17 20 23 26 29 32 35 38 41 43 45 46 46 48 49 50 51 51 51 50 48 47 46 45 45 44 43 42 41
13 13 12 12 11 10 10 11 12 14 16 18 21 25 27 29 32 35 38 42 44 45 46 47 49 49 50 51 51 50 49 48 48 47 45 44 43 42
13 13 13 12 12 11 10 10 11 12 14 15 17 20 22 24 26 29 33 37 40 43 45 46 47 48 49 50 51 51 50 50 49 48 47 46 46 44
13 13 13 13 13 12 11 11 11 11 12 13 15 18 20 22 24 26 29 32 35 38 41 42 44 46 48 49 50 51 52 51 51 50 49 49 47 46
13 13 13 13 13 13 12 12 12 12 12 13 13 15 17 19 20 23 25 28 30 34 37 39 41 44 46 48 48 50 51 51 51 51 50 50 49 48
14 14 13 13 13 13 13 13 12 12 13 13 13 14 15 16 17 19 21 24 27 30 33 34 36 40 43 45 47 48 48 49 50 50 50 50 50 49
15 14 14 14 14 14 14 14 14 13 13 13 13 13 14 15 16 18 19 21 24 27 30 32 33 35 38 41 44 46 46 47 48 49 49 49 49 50
17 16 16 15 15 15 15 15 14 14 14 14 14 14 15 16 16 17 18 20 22 24 27 29 31 33 35 37 40 42 44 46 48 48 49 49 50 50
18 17 17 17 16 16 16 16 16 16 15 15 15 15 15 16 17 17 18 19 20 22 25 27 29 31 33 34 37 39 41 43 46 47 48 49 49 50
19 18 18 18 18 18 18 18 17 17 17 17 17 17 17 17 17 17 18 19 20 22 24 26 28 29 31 32 34 37 39 41 43 45 46 46 47 48
20 20 20 20 20 20 20 19 19 19 19 19 19 19 19 19 19 19 19 20 21 22 23 25 26 28 29 30 32 34 36 38 40 42 44 44 44 45
22 22 21 21 21 22 22 21 21 21 21 21 21 21 21 21 21 21 21 21 21 22 23 24 25 27 28 29 30 32 33 35 37 39 40 42 43 43
24 24 24 23 23 23 24 24 24 24 23 23 23 23 23 23 23 23 24 23 23 23 23 24 25 26 27 27 28 30 31 33 34 36 38 39 41 43
26 26 26 26 26 26 26 26 26 26 27 26 26 26 26 26 26 26 26 26 26 25 25 26 26 26 26 27 27 29 31 32 33 34 36 38 39 40
28 28 28 29 29 29 29 29 29 29 30 30 30 30 30 29 29 29 29 29 28 28 28 28 28 28 27 27 27 28 30 31 32 33 34 36 37 39
31 31 31 31 32 32 32 32 32 33 33 33 33 33 33 33 33 33 33 33 32 32 32 31 31 31 30 30 29 29 30 32 32 32 33 34 35 36
33 34 34 34 35 35 35 36 36 36 36 37 37 37 37 37 37 37 37 37 37 36 36 35 35 35 34 34 33 32 32 33 33 34 33 34 34 34

GEFSNE_500_meanwind_084.txt.gz
Wind_Speed
6 7 10 13 16 18 21 22 24 26 28 31 33 35 37 38 39 40 40 40 40 40 39 38 37 37 36 35 35 34 33 32 31 31 30 29 29 28
6 7 8 10 13 16 19 21 23 25 26 29 31 34 36 38 38 39 40 42 42 42 42 42 41 40 40 39 38 37 36 35 35 34 33 32 31 30
6 6 7 8 11 13 15 19 22 24 26 28 29 31 33 36 38 39 41 42 43 44 44 44 44 43 43 43 42 41 40 39 38 37 36 36 35 34
6 6 7 8 8 11 13 16 19 22 24 27 28 29 31 33 35 38 39 40 42 43 44 45 46 46 46 45 45 44 44 43 43 42 41 40 39 37
7 7 7 7 8 9 11 14 16 19 21 24 26 28 30 31 34 35 37 38 41 43 45 46 47 48 48 48 48 48 47 46 46 46 45 44 43 41
8 8 8 8 8 9 10 12 14 16 19 21 24 26 27 29 31 33 34 36 39 41 43 45 47 49 49 49 50 50 50 49 49 48 47 47 46 45
9 8 8 8 9 9 10 11 12 13 16 18 20 22 24 25 28 30 31 33 35 37 39 42 43 45 48 49 50 50 51 51 51 51 50 50 49 49
9 9 9 9 9 9 10 10 11 12 13 15 17 20 22 23 25 27 28 30 32 34 36 39 41 43 45 47 48 49 50 51 51 50 51 51 51 51
10 10 10 10 10 10 10 10 11 11 12 13 15 17 19 21 23 24 26 27 29 30 32 35 38 40 42 44 45 48 49 50 51 52 52 51 51 51
11 11 11 11 10 10 11 11 11 12 12 13 14 15 17 18 20 21 23 25 26 28 30 31 34 37 39 40 41 43 45 47 47 49 51 52 52 51
12 12 12 12 12 12 12 12 12 12 13 13 13 14 15 16 18 19 20 22 24 26 28 29 31 33 35 37 39 41 43 45 46 47 48 49 51 53
14 14 14 13 13 13 13 13 13 13 14 14 14 14 14 15 17 18 19 21 22 24 26 27 28 30 31 33 36 38 39 41 42 43 44 45 47 49
15 15 15 15 15 15 15 15 15 15 15 15 15 15 15 15 16 17 19 20 22 23 25 25 26 28 29 30 32 34 36 37 39 40 41 42 43 46
17 17 17 17 17 17 17 17 17 17 17 17 17 17 17 17 18 18 19 20 21 23 24 25 26 27 28 29 30 32 33 34 36 38 40 40 41 43
19 19 19 19 19 19 19 19 18 18 18 18 19 19 19 19 20 20 20 21 22 23 24 25 26 27 28 29 29 31 32 34 35 36 38 40 41 42
21 21 21 21 21 21 21 21 20 20 20 20 20 20 21 21 21 22 22 22 23 24 24 25 26 27 28 29 30 31 32 33 34 36 36 37 39 40
22 22 23 23 23 23 23 23 23 23 23 23 23 23 23 23 23 23 24 24 24 25 25 26 26 26 27 28 29 30 32 33 34 35 36 36 37 38
24 24 24 25 25 25 25 25 25 25 25 25 25 26 26 26 26 26 26 26 26 26 27 28 28 29 29 29 30 30 31 33 34 35 35 35 36 37
26 27 27 27 27 28 28 28 28 28 28 28 28 28 29 29 29 29 29 29 29 29 30 30 30 30 30 30 31 32 32 33 34 35 36 36 36 37
29 29 29 30 30 30 31 31 31 31 31 31 31 31 32 32 32 32 32 32 33 33 33 33 33 33 33 32 31 32 33 34 34 35 36 36 36 36
32 32 32 32 32 33 33 33 33 34 34 34 34 34 34 34 35 35 35 35 36 36 36 36 36 36 36 36 35 34 35 35 35 36 36 37 37 36
34 34 35 35 35 35 35 36 36 36 37 37 37 37 37 37 38 38 39 39 39 39 39 39 39 40 40 39 39 38 38 38 38 38 37 37 38 37
36 36 36 37 37 37 38 38 38 39 39 39 40 40 40 41 41 41 42 42 43 43 43 43 43 44 44 44 43 42 42 42 42 42 41 41 40 39

GEFSNE_500_meanwind_090.txt.gz
Wind_Speed
3 4 5 8 11 13 14 15 17 19 21 22 24 26 27 28 30 31 32 32 32 33 33 33 33 32 32 31 30 29 29 30 29 28 28 28 28 28
3 3 4 5 8 10 11 13 15 17 19 21 24 25 27 29 29 30 31 32 33 34 35 35 35 35 35 34 34 34 33 33 32 32 31 31 31 31
4 4 4 5 6 7 9 11 13 15 17 19 22 24 26 28 29 30 31 32 33 34 35 36 37 37 37 37 37 36 36 36 36 36 35 35 34 34
4 4 5 6 6 7 8 9 10 12 14 16 19 21 23 25 27 29 30 31 32 34 34 36 37 38 38 39 38 38 38 38 38 39 39 39 38 38
5 5 5 6 6 7 7 9 10 11 13 14 16 18 21 23 25 27 28 29 31 33 34 35 37 37 38 39 40 40 40 41 41 41 41 41 41 41
6 6 6 6 7 7 8 9 10 11 13 14 15 17 19 21 22 24 26 28 30 32 34 35 37 38 38 39 40 41 42 42 43 43 42 42 43 43
7 7 7 7 8 8 9 10 11 12 13 14 16 17 18 19 21 22 24 26 29 31 32 34 36 37 38 39 39 40 42 43 44 45 44 44 43 44
8 8 8 9 9 9 10 11 12 13 14 14 15 16 17 19 20 21 23 24 26 28 30 32 34 34 36 37 38 39 41 42 44 45 45 45 45 46
10 10 9 10 10 10 11 12 13 13 14 15 15 16 17 18 19 21 22 23 24 25 27 28 31 32 34 34 35 37 39 40 41 43 44 45 45 46
11 11 11 11 11 12 12 13 13 14 14 15 16 16 17 18 19 20 21 22 23 24 24 25 27 29 31 33 34 35 36 38 39 40 42 43 44 45
12 12 12 12 12 12 13 13 14 14 14 15 16 16 17 17 18 19 20 20 21 23 23 24 26 26 28 30 32 33 34 36 37 38 40 41 43 44
13 13 13 13 13 13 13 14 14 15 15 15 16 16 17 17 18 19 19 20 20 21 23 23 25 25 26 28 29 31 32 34 35 36 37 39 41 42
14 14 14 14 14 15 15 15 15 16 16 17 17 17 18 18 19 19 20 20 20 21 22 23 24 25 25 26 28 29 30 32 33 34 35 37 38 39
15 15 16 16 16 16 16 17 17 17 17 18 18 19 19 19 20 20 21 21 22 23 24 24 25 25 26 26 27 28 30 31 32 33 34 35 36 38
17 17 17 17 18 18 18 18 18 18 19 19 19 20 20 21 21 22 22 22 23 24 25 26 26 26 27 27 28 28 29 30 31 32 33 34 34 35
18 19 19 19 20 20 20 20 20 20 20 21 21 22 22 23 23 23 24 24 25 25 26 27 27 28 28 28 29 29 30 31 32 33 33 33 34 35
21 21 21 22 22 22 22 22 23 23 23 23 23 23 23 24 25 25 25 26 26 27 28 28 29 29 29 29 30 31 31 32 33 33 34 34 35 36
23 23 24 24 25 25 24 25 25 25 25 26 26 26 26 26 27 27 28 28 28 29 29 30 30 30 31 31 32 32 33 33 34 34 34 35 35 36
25 25 26 26 26 27 27 27 27 27 28 28 28 28 29 29 29 30 30 30 31 31 32 32 33 33 33 33 34 35 35 35 35 36 36 36 36 36
27 27 27 28 28 28 28 29 29 29 30 30 31 31 31 31 32 32 32 33 33 34 34 35 35 35 35 35 35 36 38 38 38 38 38 38 37 37
29 29 29 29 30 30 31 31 31 31 32 32 33 33 33 34 34 34 35 35 35 36 36 37 38 38 38 38 37 38 39 40 40 40 40 40 40 39
31 31 31 32 32 32 33 33 34 34 34 34 35 35 35 36 36 37 37 37 38 38 39 39 40 41 41 41 40 40 40 41 42 43 43 43 42 41
33 33 33 34 34 34 35 36 36 36 36 36 36 37 37 38 38 39 39 40 40 41 41 41 42 43 43 44 44 43 43 43 44 44 45 46 46 46

GEFSNE_500_meanwind_096.txt.gz
Wind_Speed
2 4 6 8 9 12 14 16 16 17 19 20 22 23 24 25 26 28 29 29 29 29 30 30 30 30 30 30 30 30 30 30 30 29 30 29 29 29
2 3 4 6 8 10 11 13 14 16 17 19 21 23 24 25 26 27 29 30 31 31 31 31 32 32 32 32 33 33 33 33 33 32 32 32 32 31
1 2 3 4 6 9 10 11 13 14 15 17 19 21 23 24 25 27 28 30 31 32 32 32 33 34 34 34 34 35 35 35 34 35 35 34 34 34
0 1 2 4 5 7 9 10 11 13 14 15 17 19 20 22 23 24 25 27 29 31 32 33 33 34 35 35 35 36 36 36 37 37 37 37 36 36
1 1 1 3 5 6 8 9 10 11 13 14 15 16 18 20 22 23 24 26 28 29 31 32 33 34 35 36 36 37 37 38 38 38 39 39 39 38
2 2 2 3 4 5 7 8 10 11 12 13 14 15 17 19 21 22 23 25 27 28 30 31 32 33 34 35 36 37 38 39 39 39 40 40 40 40
3 3 3 4 4 5 6 8 9 10 11 12 13 15 16 18 19 20 22 23 25 26 28 29 30 31 32 34 36 37 38 39 39 40 41 41 41 41
4 4 4 5 5 6 7 8 9 10 11 12 13 14 16 17 18 20 21 22 24 25 26 27 28 29 31 32 34 35 36 38 38 40 42 43 43 43
5 5 5 5 6 7 7 8 9 10 11 12 13 13 15 16 18 19 20 22 23 24 25 26 27 28 29 30 31 34 36 37 38 38 40 42 43 44
6 6 6 7 7 7 8 8 9 10 11 12 13 14 14 15 17 18 19 21 22 23 24 26 27 28 29 30 31 32 33 35 36 37 39 40 42 44
8 7 8 8 9 9 9 9 10 11 11 12 13 14 15 16 16 17 18 20 21 22 23 25 27 28 29 30 31 32 34 35 35 36 37 38 39 41
9 9 9 9 10 10 10 11 11 12 12 13 14 14 15 16 17 17 18 19 20 21 22 24 25 26 28 29 30 32 33 34 35 35 36 37 38 39
11 11 11 11 11 11 12 12 13 13 14 14 15 16 16 17 17 18 19 20 20 21 22 23 24 25 26 28 29 30 32 33 34 35 36 37 38 39
13 13 12 12 12 13 13 14 14 15 15 16 16 17 18 18 19 20 20 21 21 22 23 23 24 25 26 27 29 30 31 32 34 35 36 37 38 38
16 15 15 14 14 14 14 15 16 16 17 17 18 19 19 20 20 21 21 22 23 23 24 24 25 26 27 28 29 31 32 32 33 34 35 37 38 39
19 18 18 18 17 17 17 17 17 18 18 19 20 20 21 21 21 22 23 23 24 24 25 26 27 27 28 29 30 31 32 33 34 35 36 37 38 38
22 21 21 20 20 19 19 19 19 19 20 20 21 21 22 22 23 23 24 25 26 27 28 28 28 29 30 31 32 33 34 34 35 35 36 37 38 39
25 24 23 23 22 22 21 21 21 21 21 22 22 23 24 24 25 25 26 27 28 29 30 30 31 31 32 33 33 34 35 35 36 37 37 38 39 40
27 26 25 25 24 24 24 23 23 23 24 24 24 25 26 26 27 28 28 29 30 30 31 32 32 33 34 35 36 36 36 37 37 38 39 39 39 41
29 28 27 27 26 26 25 25 25 25 26 26 26 27 27 28 29 30 30 31 31 32 33 33 34 35 35 36 37 39 39 39 39 40 40 41 42 42
30 30 29 28 28 27 27 27 27 27 27 28 28 29 29 30 30 31 31 32 33 33 34 35 36 36 37 37 38 39 41 42 42 42 42 43 43 44
32 31 30 30 29 29 29 28 28 28 29 29 29 30 31 31 31 32 32 33 34 35 36 37 38 38 39 39 40 40 41 43 44 45 45 45 45 45
33 33 32 31 31 30 30 30 30 30 30 30 30 31 32 32 33 33 34 35 36 37 38 39 40 40 41 42 42 42 43 44 45 46 48 49 49 48

GEFSNE_500_meanwind_102.txt.gz
Wind_Speed
2 3 5 7 8 9 11 13 14 15 16 18 20 21 22 23 23 24 24 25 25 25 26 27 27 27 27 28 27 28 28 28 28 28 27 27 27 27
2 3 4 5 7 9 10 11 13 15 15 16 18 20 21 22 23 24 25 25 25 26 26 27 28 27 28 29 29 29 30 30 30 30 30 30 30 29
2 3 4 5 6 7 9 10 12 14 15 16 18 19 21 22 23 24 24 25 26 26 26 27 28 29 29 29 30 31 31 31 31 31 31 31 31 31
1 2 4 5 6 7 8 9 11 12 14 15 16 17 18 20 21 23 24 25 26 26 26 26 27 29 30 30 30 31 31 32 32 33 33 33 33 33
1 2 4 5 6 7 9 9 10 11 12 13 14 16 17 18 19 21 22 23 24 25 25 26 27 28 29 30 30 31 32 32 33 34 34 35 35 35
2 3 4 5 6 7 8 9 10 11 12 12 13 14 15 16 18 19 20 21 22 24 25 26 27 28 29 30 31 32 33 33 34 34 35 35 35 36
4 5 5 5 6 7 8 9 10 11 11 13 13 14 15 16 17 18 19 20 22 23 24 26 27 28 29 30 31 32 33 33 34 35 35 36 37 37
6 6 6 7 7 8 8 9 10 11 12 12 13 14 15 16 17 18 19 20 21 22 24 25 26 27 28 30 31 31 32 33 34 35 35 35 36 37
8 8 7 8 8 8 9 10 10 10 11 12 13 14 15 16 17 17 18 19 20 20 22 24 24 24 26 27 28 30 30 31 33 34 35 36 36 37
10 10 10 9 9 9 10 10 11 11 12 12 13 14 14 15 16 17 18 18 19 20 20 22 23 24 24 25 26 28 29 30 32 33 34 34 36 37
14 13 13 12 11 11 11 12 12 12 12 13 13 14 14 15 16 16 17 18 19 19 20 21 22 23 24 25 26 27 28 29 31 32 34 34 35 36
17 16 15 15 14 14 14 13 14 14 14 14 14 15 16 16 17 17 18 19 19 20 20 22 23 23 25 26 26 27 29 30 31 33 34 35 35 35
20 19 18 18 17 17 16 16 16 16 15 15 15 16 16 17 17 18 19 19 20 20 21 22 23 24 25 26 27 28 28 29 31 33 34 35 35 35
24 22 21 20 19 19 18 18 18 18 17 17 17 17 17 18 18 19 20 20 21 21 22 23 24 25 26 27 28 29 29 30 31 32 33 34 35 36
27 26 24 23 22 21 20 20 19 19 19 18 18 18 18 19 19 20 20 21 21 22 23 24 24 25 26 27 28 30 31 31 31 32 34 35 36 37
31 29 28 27 25 24 23 23 22 21 21 20 20 20 20 20 20 21 21 22 22 23 24 25 25 26 27 27 28 29 31 31 32 33 34 35 36 37
34 32 31 30 29 28 27 26 25 24 24 23 23 22 22 22 22 22 23 23 24 24 25 26 26 27 28 28 29 30 31 32 33 34 35 36 37 38
36 35 34 33 32 30 29 29 28 27 27 26 25 25 24 24 24 24 24 25 25 25 26 26 27 28 29 30 30 31 32 33 34 35 36 36 37 39
39 38 37 36 34 33 32 31 31 30 29 29 28 27 27 26 26 26 26 26 27 27 27 27 28 29 30 31 32 33 33 34 34 35 36 37 37 39
41 40 39 38 37 36 35 34 33 32 31 31 30 29 29 29 28 28 28 28 28 28 29 29 30 30 31 32 33 34 35 35 35 36 36 37 38 39
43 42 41 41 40 39 37 36 35 34 33 33 32 31 31 30 30 30 29 29 30 30 30 31 31 31 32 33 33 34 36 36 36 37 37 38 38 39
45 44 43 42 42 41 40 38 37 36 35 34 34 33 32 32 31 31 30 30 31 31 31 32 33 33 33 34 34 35 36 37 38 38 38 39 39 39
48 47 45 44 43 42 41 40 39 38 36 36 35 34 34 33 32 32 32 31 31 31 32 33 33 34 35 35 36 36 37 38 38 39 41 41 41 42

GEFSNE_500_meanwind_108.txt.gz
Wind_Speed
2 2 4 6 8 11 14 16 17 19 22 22 23 23 24 24 25 24 25 26 26 26 26 26 25 24 25 25 25 26 26 25 25 25 25 25 25 25
2 2 3 4 7 9 12 14 16 17 19 22 22 23 23 24 25 25 25 26 27 28 28 27 27 26 26 26 27 27 27 27 26 27 27 27 28 28
4 3 4 5 6 8 10 13 15 17 17 19 20 21 22 23 24 26 26 26 27 28 28 28 28 28 28 28 28 29 29 29 28 28 28 28 29 29
5 4 5 6 7 8 10 12 14 15 16 17 18 20 21 22 24 25 25 26 26 27 28 28 28 28 29 29 29 30 29 29 29 29 29 29 30 31
7 6 6 7 8 9 10 12 13 14 15 16 17 19 20 21 22 23 24 26 26 27 28 28 28 28 28 28 28 29 29 29 29 30 30 30 31 32
9 8 7 8 9 10 12 13 13 14 15 16 17 17 18 20 21 22 22 24 25 25 26 27 28 28 28 27 28 28 29 29 30 30 31 31 31 32
11 10 9 9 10 12 13 14 14 15 16 16 17 17 18 19 20 20 22 23 24 24 25 27 27 28 28 28 29 29 30 31 31 31 32 32 33 33
13 13 13 12 12 12 13 14 15 16 17 17 17 18 18 18 19 20 21 22 23 24 24 25 26 27 28 29 29 29 31 31 32 32 32 32 33 33
16 16 15 15 15 15 15 16 16 17 18 19 19 19 19 19 20 21 21 22 22 23 23 24 25 26 27 27 28 28 29 29 29 30 31 31 32 32
20 19 18 18 18 17 17 17 18 18 19 18 19 19 20 20 20 21 22 22 23 22 23 23 23 24 25 26 26 26 26 27 28 28 29 29 30 32
23 22 21 21 20 20 20 20 19 20 20 20 20 19 19 19 19 20 21 23 23 23 23 23 23 24 24 25 26 25 25 26 27 27 28 29 30 31
26 25 25 24 24 23 23 22 22 21 21 21 21 21 21 20 20 20 20 21 22 23 23 23 23 24 23 24 24 25 25 25 26 27 28 29 30 31
30 29 28 27 27 26 26 25 24 24 23 23 22 22 22 22 22 21 21 21 22 23 23 23 23 24 24 24 24 24 24 24 25 26 27 28 29 30
34 33 31 31 30 29 29 28 27 27 26 25 25 24 24 24 24 23 23 23 23 23 23 24 24 24 25 25 25 25 25 26 26 27 28 28 29 30
37 36 35 34 33 32 31 31 30 29 29 28 28 27 26 26 25 25 25 24 24 24 24 24 25 25 25 25 26 26 26 27 28 28 29 30 31 32
40 40 39 37 36 35 34 33 33 32 31 30 29 29 28 27 26 26 25 25 25 25 25 25 25 25 25 26 26 26 27 28 29 30 30 31 32 33
43 43 42 40 38 37 37 36 35 34 33 32 32 31 30 29 28 27 26 26 26 26 26 26 26 26 26 26 27 27 28 28 29 30 31 31 32 32
47 45 44 42 41 40 39 38 37 36 35 35 34 33 32 31 30 29 28 28 27 27 26 26 26 27 27 27 28 28 29 29 30 30 31 32 32 33
50 48 46 45 43 42 41 40 39 38 38 37 36 35 34 33 32 31 30 30 29 29 28 28 28 28 28 28 28 29 29 29 30 31 31 32 33 33
52 50 49 47 46 45 44 43 42 41 40 39 38 37 36 35 34 33 32 31 31 30 30 29 29 29 29 29 30 30 31 31 31 32 32 33 33 34
52 52 51 50 49 48 47 46 44 43 41 40 39 38 37 36 35 35 34 33 33 32 31 31 30 30 30 30 31 31 31 31 32 32 32 33 33 34
53 53 52 51 51 50 49 48 47 45 44 42 41 40 39 38 37 36 35 34 33 33 33 32 31 31 31 31 31 31 31 32 32 32 33 33 33 34
53 53 52 52 52 52 51 50 49 48 46 44 43 41 40 39 38 37 36 35 34 34 33 33 32 32 32 32 32 32 33 33 33 33 33 34 34 35

GEFSNE_500_meanwind_114.txt.gz
Wind_Speed
11 9 7 5 4 5 7 8 10 12 14 16 18 20 21 22 23 24 24 23 23 23 24 24 24 24 25 24 24 23 23 23 23 23 23 23 22 22
11 10 8 6 5 5 6 8 10 12 13 15 16 18 20 21 22 23 24 23 23 23 24 25 25 25 25 25 25 25 24 24 25 25 26 25 25 25
12 11 9 8 6 6 7 8 9 11 13 14 15 18 19 21 22 23 23 24 24 24 24 25 26 26 26 26 26 26 26 26 25 26 26 26 27 27
13 12 10 9 8 8 8 9 10 11 12 14 15 17 19 21 22 23 23 25 25 25 26 26 27 28 28 27 28 28 27 27 27 26 26 26 26 27
14 13 11 11 10 9 9 10 10 12 13 14 15 17 18 20 21 23 23 24 26 26 27 27 27 28 29 29 29 29 29 28 28 28 27 27 27 27
16 15 13 13 12 12 12 12 12 12 13 14 16 17 19 21 22 23 24 24 26 26 27 27 28 28 29 29 29 29 29 29 28 28 28 28 28 28
18 17 16 15 14 14 13 13 14 14 14 15 17 18 19 21 21 23 24 25 26 27 27 28 28 28 28 29 29 29 29 29 29 29 28 28 28 29
20 19 19 18 17 17 16 16 16 17 17 18 18 19 20 21 22 22 24 25 26 27 27 28 28 28 28 28 29 29 30 30 30 30 29 29 29 29
23 22 21 20 20 20 20 19 19 19 20 20 20 21 21 22 22 23 24 25 25 26 27 27 27 27 28 27 27 28 29 29 29 30 29 29 30 29
27 26 25 24 23 23 23 23 22 22 22 22 23 23 22 23 23 24 24 25 25 26 26 27 27 27 27 27 28 28 28 29 29 29 30 29 29 29
31 30 29 28 27 26 26 25 25 25 25 25 25 25 25 25 25 25 26 26 26 27 27 27 27 27 27 27 28 28 28 28 28 28 29 29 29 28
33 33 33 31 31 30 30 29 28 28 28 27 27 27 27 27 27 27 27 27 27 27 27 27 28 28 28 28 28 28 28 28 27 27 28 29 29 28
36 36 36 35 34 34 33 32 32 32 31 30 29 29 29 29 29 29 29 28 28 28 28 28 28 29 28 28 28 28 28 28 27 27 28 27 27 27
39 39 38 39 39 37 36 36 35 35 35 34 33 32 31 30 30 30 30 29 29 29 29 29 28 28 28 27 27 27 27 27 26 26 25 25 26 26
42 42 42 42 42 42 40 39 39 38 37 37 36 35 34 33 32 32 32 31 31 30 30 30 30 29 28 27 27 27 26 25 25 26 26 25 26 27
45 45 45 45 44 44 44 43 42 41 40 40 39 38 37 36 35 34 34 33 33 32 31 30 30 30 29 28 27 27 27 26 26 26 27 26 27 27
47 48 48 48 48 47 46 46 46 45 43 42 42 41 39 38 37 36 36 36 35 33 32 32 31 30 29 28 28 28 28 27 27 27 27 27 27 28
49 49 49 50 50 50 49 48 48 47 46 46 45 44 43 41 40 38 37 37 36 35 34 33 32 31 30 29 29 28 28 28 29 28 28 28 28 28
51 50 51 51 51 51 51 50 49 48 48 47 46 46 45 44 42 41 39 38 37 36 36 35 34 33 32 31 30 30 29 29 30 29 29 29 29 29
51 51 51 50 50 51 51 51 50 49 49 48 47 47 46 46 44 43 41 40 39 38 37 36 35 34 33 32 32 31 31 30 30 29 29 29 29 30
50 50 50 50 49 49 49 49 50 50 50 49 48 48 47 47 46 45 43 42 41 40 39 37 37 36 35 34 33 32 32 32 31 31 30 30 30 30
49 49 49 48 48 48 47 48 49 49 49 49 49 49 48 48 47 46 45 44 42 40 40 39 39 38 37 35 35 34 33 32 32 32 31 31 31 30
49 48 48 47 47 47 47 47 48 49 49 48 49 49 48 47 47 47 47 45 44 42 40 40 40 39 38 37 36 35 34 33 33 32 32 32 32 31

GEFSNE_500_meanwind_120.txt.gz
Wind_Speed
12 10 8 6 4 2 2 3 5 7 9 12 14 16 17 18 20 22 23 24 24 24 25 25 25 25 25 25 25 25 26 25 25 25 24 23 23 23
13 11 9 7 5 4 3 4 5 6 8 11 13 15 18 19 21 23 23 24 25 24 26 26 26 26 26 26 26 26 27 26 26 25 25 25 25 25
14 12 10 9 7 6 5 5 6 7 8 10 13 15 17 18 21 23 23 24 25 25 26 27 27 27 27 28 28 27 27 27 27 26 26 27 27 27
15 14 12 11 9 8 7 7 8 8 9 10 12 14 16 18 20 22 24 25 26 26 27 28 27 28 28 28 29 29 28 29 29 29 29 28 28 29
16 15 14 13 12 11 10 10 10 10 11 12 13 15 17 18 20 21 23 25 26 27 28 29 29 28 29 29 30 30 30 30 31 30 30 30 30 30
19 17 16 16 15 14 13 12 12 12 13 14 15 16 18 19 21 22 23 25 26 27 29 30 30 30 29 30 31 31 31 31 32 32 32 32 31 31
21 20 19 18 18 17 16 16 15 15 15 16 17 18 19 20 21 23 24 25 26 28 29 31 32 32 32 32 32 32 32 32 33 33 33 33 33 33
25 23 22 21 20 20 20 19 19 19 18 18 19 21 21 22 22 24 25 26 28 29 30 31 33 33 35 35 34 34 34 34 34 34 35 34 34 34
28 27 25 24 24 23 23 22 21 21 22 22 22 23 24 25 25 26 26 27 29 31 32 32 33 33 35 35 36 35 35 35 35 35 35 35 35 34
32 30 29 27 26 26 26 26 25 25 25 25 25 25 26 27 28 29 29 30 31 32 32 33 34 35 35 36 36 37 36 36 36 35 35 35 35 35
35 34 32 30 28 28 29 30 30 30 29 29 29 29 29 29 30 32 32 32 32 33 34 34 35 35 36 36 36 36 36 35 35 35 36 36 35 35
38 38 36 34 33 32 32 33 34 34 34 33 33 33 33 33 33 34 34 34 34 34 35 36 36 36 36 36 36 36 36 36 36 36 35 35 35 35
41 41 40 38 37 36 36 36 37 37 38 37 37 36 36 37 36 37 37 37 36 36 37 38 38 38 38 38 38 38 37 37 37 37 36 36 36 35
44 44 43 42 41 41 40 40 41 42 41 41 41 40 40 40 40 40 40 40 39 39 39 40 39 39 39 38 38 39 38 38 38 38 38 38 37 37
47 47 46 45 45 45 44 44 44 44 44 44 43 43 43 43 43 43 43 43 43 42 42 41 41 40 40 40 40 40 39 39 39 38 38 38 38 37
51 51 50 49 48 47 47 47 47 47 48 47 47 46 45 45 45 46 46 46 45 44 43 43 42 42 42 42 42 41 41 40 40 39 38 38 38 38
54 53 53 52 51 50 49 49 49 49 50 50 50 49 48 48 48 47 47 47 48 46 45 45 45 45 45 44 43 43 42 42 41 40 39 38 37 37
56 54 54 53 52 52 52 51 51 50 51 52 51 51 51 50 50 49 49 49 49 49 48 47 47 46 45 45 44 43 43 42 41 41 40 39 38 36
58 56 56 55 53 53 54 53 52 51 52 52 53 53 52 52 52 51 50 50 50 49 49 49 48 48 47 45 45 44 44 43 43 42 41 40 38 37
59 58 57 56 54 54 54 54 53 51 51 52 53 53 53 52 51 51 51 50 50 50 49 49 49 49 48 47 46 45 45 44 43 42 41 41 40 39
59 58 57 56 55 53 53 53 53 51 51 51 51 50 51 51 50 50 50 51 51 50 49 47 48 48 49 49 47 46 45 44 43 42 42 42 41 39
59 58 57 55 54 53 52 52 53 52 51 51 51 50 50 50 50 50 50 50 50 50 49 48 48 49 49 48 47 46 46 46 45 44 43 42 41 39
59 58 56 55 54 54 53 52 52 51 50 50 50 49 49 49 50 51 50 49 49 50 49 48 48 48 49 48 48 47 47 46 46 45 44 43 42 41

GEFSNE_500_meanwind_126.txt.gz
Wind_Speed
18 17 16 15 13 11 9 7 6 5 5 5 7 10 13 16 18 19 21 23 24 25 25 26 26 26 25 25 26 25 25 25 25 25 25 24 24 23
18 18 17 16 14 12 11 10 8 7 6 7 8 10 13 15 17 19 21 22 23 25 26 26 26 27 27 26 27 27 27 27 27 27 26 26 26 26
18 18 17 17 15 14 12 11 11 10 8 8 10 11 12 15 17 18 20 22 24 25 26 27 28 28 28 28 28 28 28 28 28 28 28 28 28 28
19 19 18 18 17 15 14 14 13 12 11 10 11 12 13 15 17 18 20 22 24 25 26 27 28 29 30 30 30 30 30 30 30 30 30 29 29 29
20 20 20 19 18 17 17 16 16 15 14 13 12 13 14 15 17 19 20 22 24 25 27 28 29 30 31 32 32 32 32 32 32 32 32 32 31 31
21 21 21 21 20 20 19 19 18 17 17 16 15 15 16 17 19 20 21 22 24 26 27 29 30 31 32 33 33 34 34 34 34 34 34 34 34 33
23 23 23 23 23 23 22 22 21 20 19 18 18 17 18 19 20 22 23 24 25 27 28 29 30 32 33 35 35 36 36 36 36 36 36 35 35 35
25 25 25 25 25 25 25 25 24 23 22 21 21 20 21 21 22 23 25 26 28 29 30 31 32 33 34 35 36 36 37 38 38 38 38 37 37 37
27 28 28 28 28 28 28 28 27 26 26 25 24 24 25 25 25 26 27 28 29 30 32 33 34 36 37 38 38 38 38 39 39 40 41 40 39 39
31 31 31 31 32 32 31 31 30 30 29 29 28 28 28 29 29 30 30 31 31 33 34 35 37 38 39 40 40 40 40 41 41 42 42 42 42 41
35 35 35 35 35 35 35 34 33 33 33 32 31 31 32 32 32 33 34 34 35 35 36 37 39 40 41 41 42 42 42 41 42 43 43 43 43 43
38 38 39 39 39 39 39 38 37 37 37 37 36 35 35 36 36 37 37 38 38 38 39 40 41 42 42 42 43 44 44 44 44 44 44 45 44 44
41 42 42 43 43 43 42 42 41 41 41 41 40 39 39 40 40 40 41 42 42 41 42 43 43 44 44 44 45 45 45 46 46 45 45 45 45 45
45 45 46 46 46 46 45 45 45 45 45 45 44 43 42 43 44 44 45 46 45 45 45 46 46 46 46 46 46 46 47 47 47 47 47 46 46 46
48 48 49 50 50 49 49 49 49 49 49 49 48 47 46 47 47 48 48 48 48 48 48 48 48 48 49 48 48 48 48 48 48 48 48 48 48 47
51 52 52 53 53 52 52 52 53 53 53 52 51 51 50 50 51 51 51 51 51 50 50 50 51 51 51 50 50 49 49 49 49 49 49 50 49 49
55 55 56 56 55 55 55 54 55 55 55 53 53 52 52 53 53 53 53 53 54 53 53 53 53 53 52 51 51 50 51 51 51 52 51 50 50 49
58 58 58 58 57 57 56 56 56 56 56 55 54 54 54 55 55 54 54 55 56 56 56 55 54 54 54 53 52 52 52 53 53 53 53 52 51 51
61 60 60 60 59 58 58 58 57 57 56 55 55 55 56 56 56 55 54 55 56 56 56 56 55 55 55 54 53 53 52 52 53 52 52 52 51 50
63 62 62 62 61 60 60 60 59 57 56 56 56 55 55 55 54 54 54 54 55 55 54 53 54 54 55 54 53 52 52 51 52 51 51 51 50 50
64 64 64 63 63 62 62 61 60 58 57 57 56 55 54 54 52 52 53 53 53 53 52 51 51 53 54 53 53 51 50 50 50 49 50 50 49 49
66 65 65 65 65 64 63 61 60 59 58 57 56 54 53 52 51 50 50 50 49 49 49 49 49 49 50 50 49 49 48 48 48 48 49 49 48 47
67 66 66 66 65 65 63 61 60 59 57 56 55 54 52 50 49 48 47 47 47 46 46 46 46 46 47 47 47 47 48 47 46 47 47 47 47 46